Greenville, ME

4:04 PM EDT on April 30, 2017 (GMT -0400)
Greenville

Weather History for KGNR - February, 2014

Change the Weather History Date:

Sunday, February 16, 2014

  Actual Average (KMLT) Record (KMLT)
Temperature  
Mean Temperature 12 °F -  
Max Temperature 18 °F 28 °F 57 °F (1908)
Min Temperature 6 °F 7 °F -23 °F (1914)
Degree Days  
Heating Degree Days 52    
Moisture  
Dew Point 7 °F    
Average Humidity 75    
Maximum Humidity 88    
Minimum Humidity 62    
Precipitation  
Precipitation 0.16 in - - ()
Sea Level Pressure  
Sea Level Pressure 29.55 in    
Wind  
Wind Speed 14 mph (NW)    
Max Wind Speed 21 mph    
Max Gust Speed 37 mph    
Averages and records for this station are not official NWS values.
T = Trace of Precipitation, MM = Missing Value Source: NWS Daily Summary

Daily Weather History Graph

Daily Weather History Graph

Search for Another Location

Airport or City:

Trip Planner

Search our weather history database for the weather conditions in past years. The results will help you decide how hot, cold, wet, or windy it might be!

Date:

Astronomy

Feb. 16, 2014 Rise Set
Actual Time 6:38 AM EST 5:06 PM EST
Civil Twilight 6:08 AM EST 5:37 PM EST
Nautical Twilight 5:33 AM EST 6:11 PM EST
Astronomical Twilight 4:59 AM EST 6:46 PM EST
Moon 7:08 PM EST (2/16) 6:59 AM EST (2/16)
Length of Visible Light 11h 29m
Length of Day
10h 28m
Full, 97% of the Moon is Illuminated
Feb 16
Full
Feb 22
Last Quarter
Mar 1
New
Mar 8
First Quarter
Mar 16
Full

Hourly Weather History & Observations

Time (EST) Temp. Windchill Dew Point Humidity Pressure Visibility Wind Dir Wind Speed Gust Speed Precip Events Conditions
12:56 AM 18.0 °F 5.4 °F 14.0 °F 84% 29.51 in - North 11.5 mph 18.4 mph 0.03 in   Unknown
1:56 AM 17.1 °F 1.5 °F 12.9 °F 84% 29.47 in - NNW 17.3 mph 27.6 mph 0.03 in   Unknown
2:56 AM 16.0 °F 0.6 °F 12.9 °F 88% 29.44 in - NNW 16.1 mph 26.5 mph 0.04 in   Unknown
3:56 AM 16.0 °F -0.4 °F 12.0 °F 84% 29.42 in - NNW 18.4 mph 27.6 mph 0.02 in   Unknown
4:56 AM 16.0 °F -1.3 °F 12.0 °F 84% 29.41 in - NNW 20.7 mph 32.2 mph N/A   Unknown
5:56 AM 15.1 °F -2.0 °F 12.0 °F 88% 29.40 in - NNW 19.6 mph 31.1 mph 0.01 in   Unknown
6:56 AM 15.1 °F -0.6 °F 10.9 °F 84% 29.41 in - NW 16.1 mph 29.9 mph 0.01 in   Unknown
7:56 AM 15.1 °F -1.1 °F 10.9 °F 84% 29.43 in - NW 17.3 mph 31.1 mph 0.01 in   Unknown
8:56 AM 16.0 °F 0.1 °F 10.9 °F 81% 29.44 in - NW 17.3 mph 36.8 mph N/A   Unknown
9:56 AM 18.0 °F 2.2 °F 10.9 °F 74% 29.44 in - NW 18.4 mph 32.2 mph 0.01 in   Unknown
10:56 AM 16.0 °F 2.3 °F 8.1 °F 71% 29.48 in - NW 12.7 mph 25.3 mph N/A   Unknown
11:56 AM 16.0 °F 4.4 °F 6.1 °F 65% 29.50 in - WNW 9.2 mph 25.3 mph N/A   Unknown
12:56 PM 17.1 °F - 6.1 °F 62% 29.52 in - North - - N/A   Unknown
1:56 PM 16.0 °F 2.9 °F 5.0 °F 62% 29.55 in - WNW 11.5 mph 25.3 mph N/A   Unknown
2:56 PM 14.0 °F 1.2 °F 3.9 °F 64% 29.59 in - WNW 10.4 mph 23.0 mph N/A   Unknown
3:56 PM 12.0 °F -0.4 °F 3.0 °F 67% 29.61 in - WNW 9.2 mph 20.7 mph N/A   Unknown
4:56 PM 10.0 °F -3.7 °F 1.9 °F 70% 29.63 in - NW 10.4 mph 27.6 mph N/A   Unknown
5:56 PM 10.0 °F -4.5 °F 1.9 °F 70% 29.66 in - WNW 11.5 mph 25.3 mph N/A   Unknown
6:56 PM 9.0 °F -5.1 °F 1.9 °F 73% 29.68 in - WNW 10.4 mph 20.7 mph N/A   Unknown
7:56 PM 9.0 °F -4.2 °F 1.9 °F 73% 29.70 in - WNW 9.2 mph 20.7 mph N/A   Unknown
8:56 PM 8.1 °F -6.2 °F 1.0 °F 73% 29.73 in - WNW 10.4 mph 21.9 mph N/A   Unknown
9:56 PM 8.1 °F -5.3 °F 1.0 °F 73% 29.74 in - WNW 9.2 mph 19.6 mph N/A   Unknown
10:56 PM 7.0 °F -6.6 °F -0.0 °F 73% 29.76 in - NW 9.2 mph 18.4 mph N/A   Unknown
11:56 PM 6.1 °F -8.7 °F -0.0 °F 76% 29.78 in - NW 10.4 mph 20.7 mph N/A   Unknown